San Jose, Costa Rica

1:18 AM CST on December 17, 2017 (GMT -0600)
Juan Santamaria International

Weather History for MROC - October, 2012

Change the Weather History Date:

Tuesday, October 30, 2012

  Actual Average Record
Temperature  
Mean Temperature 72 °F -  
Max Temperature 81 °F 78 °F 84 °F (1996)
Min Temperature 64 °F 64 °F 63 °F (2017)
Cooling Degree Days 8    
Growing Degree Days 22 (Base 50)    
Moisture  
Dew Point 59 °F    
Average Humidity 61    
Maximum Humidity 78    
Minimum Humidity 39    
Precipitation  
Precipitation 0.00 in 0.18 in - ()
Sea Level Pressure  
Sea Level Pressure 30.00 in    
Wind  
Wind Speed 7 mph ()    
Max Wind Speed 13 mph    
Max Gust Speed -    
Visibility 8.0 miles    
Events      
Averages and records for this station are not official NWS values.
T = Trace of Precipitation, MM = Missing Value Source: Averaged Metar Reports

Daily Weather History Graph

Daily Weather History Graph

Search for Another Location

Airport or City:

Trip Planner

Search our weather history database for the weather conditions in past years. The results will help you decide how hot, cold, wet, or windy it might be!

Date:

Astronomy

Oct. 30, 2012 Rise Set
Actual Time 5:27 AM CST 5:13 PM CST
Civil Twilight 5:05 AM CST 5:35 PM CST
Nautical Twilight 4:40 AM CST 6:00 PM CST
Astronomical Twilight 4:15 AM CST 6:25 PM CST
Moon 5:57 PM CST (10/30) 6:00 AM CST (10/30)
Length of Visible Light 12h 29m
Length of Day
11h 46m
Full, 99% of the Moon is Illuminated
Oct 30
Full
Nov 6
Last Quarter
Nov 13
New
Nov 20
First Quarter
Nov 28
Full

Hourly Weather History & Observations

Time (CST) Temp. Heat Index Dew Point Humidity Pressure Visibility Wind Dir Wind Speed Gust Speed Precip Events Conditions
12:00 AM 67 °F - 59 °F 70% 29.91 in 12 mi ENE 8.1 mph - -   Scattered Clouds
12:00 AM 68.0 °F - 59.0 °F 73% 30.04 in - ENE 8.1 mph - N/A   Clear
1:00 AM 66.2 °F - 59.0 °F 78% 30.02 in - NE 5.8 mph - N/A   Clear
2:00 AM 66.2 °F - 57.2 °F 73% 30.02 in - ENE 8.1 mph - N/A   Clear
3:00 AM 69 °F - 58 °F 60% 29.87 in 12 mi ENE 9.2 mph - -   Scattered Clouds
3:00 AM 69.8 °F - 59.0 °F 68% 30.01 in - ENE 9.2 mph - N/A   Clear
4:00 AM 66.2 °F - 57.2 °F 73% 30.01 in - NNE 5.8 mph - N/A   Clear
5:00 AM 68.0 °F - 57.2 °F 68% 30.01 in - ENE 4.6 mph - N/A   Clear
6:00 AM 69 °F - 57 °F 56% 29.90 in 12 mi East 4.6 mph - -   Scattered Clouds
6:00 AM 68.0 °F - 57.2 °F 68% 30.04 in 6.2 mi East 4.6 mph - N/A   Mostly Cloudy
7:00 AM 68.0 °F - 59.0 °F 73% 30.04 in 6.2 mi ESE 9.2 mph - N/A   Scattered Clouds
8:02 AM 75.2 °F - 59.0 °F 57% 30.07 in 6.2 mi East 10.4 mph - N/A   Scattered Clouds
9:00 AM 78 °F - 58 °F 41% 29.90 in 12 mi East 11.5 mph - -   Scattered Clouds
9:00 AM 78.8 °F - 59.0 °F 51% 30.09 in 6.2 mi East 11.5 mph - N/A   Mostly Cloudy
10:00 AM 78.8 °F - 59.0 °F 51% 30.08 in 6.2 mi East 12.7 mph - N/A   Mostly Cloudy
11:00 AM 80.6 °F 81.1 °F 59.0 °F 48% 30.04 in 6.2 mi East 10.4 mph - N/A   Mostly Cloudy
12:00 PM 81 °F - 60 °F 39% 29.87 in 12 mi East 6.9 mph - -   Partly Cloudy
12:00 PM 80.6 °F 81.5 °F 60.8 °F 51% 30.03 in 6.2 mi East 6.9 mph - N/A   Scattered Clouds
1:00 PM 78.8 °F - 60.8 °F 54% 30.01 in 6.2 mi East 10.4 mph - N/A   Scattered Clouds
2:00 PM 80.6 °F 81.5 °F 60.8 °F 51% 29.99 in 6.2 mi East 10.4 mph - N/A   Scattered Clouds
3:00 PM 80 °F - 59 °F 39% 29.83 in 12 mi East 9.2 mph - -   Partly Cloudy
3:00 PM 80.6 °F 81.1 °F 59.0 °F 48% 29.98 in 6.2 mi East 9.2 mph - N/A   Scattered Clouds
4:00 PM 78.8 °F - 59.0 °F 51% 29.99 in 6.2 mi East 11.5 mph - N/A   Scattered Clouds
5:00 PM 75.2 °F - 60.8 °F 61% 30.00 in 6.2 mi ESE 6.9 mph - N/A   Scattered Clouds
6:00 PM 73 °F - 60 °F 55% 29.88 in 12 mi East 5.8 mph - -   Partly Cloudy
6:00 PM 73.4 °F - 62.6 °F 69% 30.03 in 6.2 mi East 5.8 mph - N/A   Scattered Clouds
7:00 PM 71.6 °F - 60.8 °F 69% 30.06 in 6.2 mi East 3.5 mph - N/A   Scattered Clouds
8:00 PM 69.8 °F - 62.6 °F 78% 30.07 in 6.2 mi East 8.1 mph - N/A   Scattered Clouds
9:00 PM 69 °F - 61 °F 70% 29.96 in 12 mi ESE 2.3 mph - -   Scattered Clouds
9:00 PM 69.8 °F - 60.8 °F 73% 30.10 in 6.2 mi ESE 2.3 mph - N/A   Scattered Clouds
10:00 PM 69.8 °F - 60.8 °F 73% 30.11 in 6.2 mi East 3.5 mph - N/A   Scattered Clouds
11:00 PM 69.8 °F - 60.8 °F 73% 30.10 in 6.2 mi NE 2.3 mph - N/A   Scattered Clouds